GMT,Max TemperatureF,Mean TemperatureF,Min TemperatureF,Max Dew PointF,MeanDew PointF,Min DewpointF,Max Humidity, Mean Humidity, Min Humidity, Max Sea Level PressureIn, Mean Sea Level PressureIn, Min Sea Level PressureIn, Max VisibilityMiles, Mean VisibilityMiles, Min VisibilityMiles, Max Wind SpeedMPH, Mean Wind SpeedMPH, Max Gust SpeedMPH,PrecipitationIn, CloudCover, Events, WindDirDegrees
2013-1-1,43,39,35,37,35,32,93,86,72,30.06,29.77,29.50,19,7,6,21,17,,0.00,3,,251
2013-1-2,53,46,39,50,47,37,100,91,81,30.27,30.11,30.04,19,6,3,26,16,,0.00,6,Rain,237
2013-1-3,54,52,51,50,49,46,94,90,80,30.51,30.40,30.27,16,6,2,20,13,14,0.00,6,Rain,235
2013-1-4,51,46,41,47,45,39,100,87,78,30.57,30.52,30.45,19,7,6,17,11,,0.00,5,Fog,225
2013-1-5,53,45,37,50,45,37,100,87,76,30.46,30.40,30.36,19,7,6,21,8,29,0.00,5,Fog-Rain,203
2013-1-6,51,44,36,48,44,37,100,86,67,30.46,30.31,30.21,16,6,0,16,7,,0.00,5,Fog,173
2013-1-7,53,50,47,50,48,45,94,92,76,30.22,30.08,30.01,12,6,3,20,8,,0.04,6,Rain,182
2013-1-8,53,44,35,50,44,36,100,89,80,30.24,30.12,30.01,19,7,6,17,11,,0.02,4,,250
2013-1-9,46,37,28,39,33,28,100,93,66,30.27,30.17,30.06,19,7,6,9,5,,0.00,1,,228
2013-1-10,44,36,28,43,37,28,100,93,79,30.07,29.97,29.92,19,6,3,18,7,,0.08,4,Rain,186
2013-1-11,45,38,30,45,38,28,100,93,79,30.05,29.94,29.80,12,6,0,13,8,,0.00,5,Fog-Rain,154
2013-1-12,44,40,35,43,38,30,100,87,67,30.06,29.87,29.77,16,6,4,16,10,,0.00,5,Rain,88
2013-1-13,37,32,27,37,33,27,100,94,80,30.16,30.11,30.06,19,5,1,16,8,,0.04,5,Rain-Snow,255
2013-1-14,42,38,33,39,36,32,100,90,76,30.10,29.93,29.86,19,7,5,20,15,,0.01,4,Rain,277
2013-1-15,39,34,30,36,32,29,100,91,79,29.93,29.86,29.74,19,7,6,16,10,,0.00,3,Rain,265
2013-1-16,41,36,30,39,36,33,93,87,73,29.87,29.80,29.71,12,6,5,17,11,,0.16,6,Rain,144
2013-1-17,46,42,38,44,42,39,100,96,87,29.88,29.75,29.53,7,6,3,31,13,43,0.04,6,Fog-Rain,140
2013-1-18,39,37,35,38,35,34,100,94,85,29.56,29.34,29.24,6,4,3,34,29,47,0.71,6,Rain-Snow,127
2013-1-19,39,36,33,37,33,28,100,90,75,29.59,29.47,29.27,6,5,3,20,14,,0.08,6,Rain-Snow,110
2013-1-20,36,35,34,30,29,27,81,76,59,29.60,29.47,29.39,16,7,6,18,13,,0.00,6,Rain-Snow,105
2013-1-21,35,32,28,34,32,28,100,92,67,29.39,29.35,29.33,16,6,2,14,8,,0.28,6,Rain-Snow,344
2013-1-22,35,29,23,34,29,23,100,98,93,29.74,29.54,29.36,16,6,2,6,3,,0.00,5,Rain-Snow,313
2013-1-23,39,34,29,34,32,28,100,86,70,29.83,29.75,29.71,12,7,6,15,7,,0.00,6,Rain,95
2013-1-24,41,37,33,37,34,32,93,85,76,30.01,29.95,29.83,16,6,4,15,7,,0.00,6,Rain,142
2013-1-25,46,42,39,45,40,36,100,87,76,29.93,29.61,29.33,16,6,4,23,14,30,0.47,6,Rain,168
2013-1-26,53,44,35,48,40,34,93,84,73,29.69,29.48,29.00,19,7,6,26,16,34,0.08,4,Rain,212
2013-1-27,43,39,35,50,36,32,93,83,66,29.42,29.17,28.97,19,7,4,37,24,52,0.03,4,Rain,234
2013-1-28,51,43,35,43,37,32,87,74,62,29.53,29.30,29.06,14,7,6,34,24,53,0.02,4,Rain,215
2013-1-29,56,50,43,52,43,37,93,81,67,29.45,29.30,29.09,16,7,6,41,23,59,0.08,5,Rain,212
2013-1-30,46,44,41,41,38,34,87,78,62,29.81,29.55,29.33,19,7,6,39,21,54,0.16,4,Rain,232
2013-1-31,48,44,39,43,37,34,93,75,61,29.75,29.64,29.50,19,7,4,32,24,52,0.12,5,Rain,234